Starlink 36273

operational
NORAD ID: 68166 Int'l Des: 2026-049 Owner: SPXS Country: US Constellation: starlink
LEOCIRCULARRETROGRADE

Über Starlink 36273

Beschreibung wird geladen...

Live-Position

3D-Globus wird geladen...

Nächste Überflüge

Höhenverlauf

Altitude vs Time

uPlot chart will show altitude changes over time

Zweizeiliger Elementsatz

1 68166C 26049AA 26072.91229167 .00491740 00000+0 56961-3 0 728
2 68166 97.2818 91.9117 0010196 250.7538 106.2065 16.08269178 18
Epoch: 13. März 2026 • Age: 72 hours

Aktueller Status

Höhe 259.4 km
Geschwindigkeit 7.75 km/s
Subsatellitenpunkt 58.11°N, 117.52°E
Startdatum 13. März 2026
Alter 2 days
Typ internet

Technische Details

Klassifizierung Payload
Masse 575.00 kg
Trockenmasse 530.00 kg
Gesamtmasse 575.00 kg
Länge 0.30 m
Durchmesser 4.10 m
Spannweite 29.00 m
Form Box + pan
Hersteller SPXS
Bus-Typ Starlink V2MO
Phasenstatus In Orbit
Besitzer/Staat SPXS/US

Große Konstellationen

Loading constellations...